sat.trackr.live / text

‹ back to catalog

ONEWEB-0217

NORAD 48245 · 2021-031AM

PAYLOAD ACTIVE UNKNOWN

§ Identity

Operator
Country
UK
Launch date
2021-04-25
Launch site
VOSTO
Launch vehicle
Mass (kg)
RCS (m²)

Purposes: comms

External: N2YO · Heavens-Above · Gunter

§ Orbital elements

Epoch: 2026-09-19T18:07:18.804000Z

Period
109.55 min
Inclination
87.8900°
Eccentricity
0.0001641
Mean motion
13.14503489 rev/d
Perigee alt
1,204.5 km
Apogee alt
1,207.0 km
Semi-major
7,583.9 km
B*
-5.5841e-4
RAAN
270.8421°
Arg perigee
83.6681°
Mean anomaly
276.4635°
Rev number
26,060

§ Raw data

ONEWEB-02171 48245U 21031AM  26262.75507875 -.00000194  00000+0 -55841-3 0  99932 48245  87.8900 270.8421 0001641  83.6681 276.4635 13.14503489260600

JSON: /api/v1/satellites/48245 · /tle

For live sub-satellite position, see the globe view (requires WebGL).

§ Visibility from observer

Set your observer location to see the next 7 days of passes ≥ 10°. The values pass through the URL so the page stays shareable.

No JS? Fill the form by hand. The geolocation button needs JavaScript.